Tracking 26006 objects as of 17-Aug-2022
HD Live streaming from Space Station
objects crossing your sky now

RESURS O1 DEB

Track RESURS O1 DEB now!
10-day predictions


NORAD ID: 46899
Int'l Code: 1994-074CF
Perigee: 587.2 km
Apogee: 594.1 km
Inclination: 97.9 °
Period: 96.3 minutes
Semi major axis: 6961 km
RCS: Unknown
Launch date: November 4, 1994
Source: Commonwealth of Independent States (former USSR) (CIS)
Launch site: TYURATAM MISSILE AND SPACE COMPLEX (TTMTR)

Note: This is SATELLITE DEBRIS
aabbcc
Your satellite tracking list
Your tracking list is empty




NASA's NSSDC Master Catalog

Two Line Element Set (TLE):
1 46899U 94074CF  22228.58607150  .00019553  00000-0  18053-2 0  9990
2 46899  97.8774 279.7760 0004949 163.3885 196.7498 14.94645917 96333
Source of the keplerian elements: AFSPC